Snow/Ice From: 16-12-2017 16:00 Until: 17-12-2017 16:00 warning for: Snow/Ice Level: Yellow info button

Although rather usual in this region, locally or potentially dangerous phenomena are expected. (such as local winds, summer thunderstorms, rising streams or high waves) Be aware and pay attention to the latest weather updates, especially if you carry out activities exposed to weather or close to a stream or shoreline. 


Meteo18 Weather Cam more information Meteo18 Weather Cam


Thunder radar more information blitzortung!


warning for Snow/Ice more information rain snow radar


Visit our other weather sites:

Template documentation
and downloads

And another site



Weather Underground History page Text

Daily Summary for September 3, 2016 Units:  Metric    English   Both
« Previous Day
Next Day »
Daily Weekly Monthly Yearly Custom
  High: Low: Average:
Temperature: 30.2 °C 14.8 °C 22.6 °C
Dew Point: 14.3 °C 7.8 °C 10.9 °C
Humidity: 78 % 26 % 50 %
Wind Speed: 16.1 km/h 0.0 km/h 2.2 km/h
Wind Gust: 19.3 km/h - -
Wind:- - SW
Pressure: 1019.9 hPa 1016.1 hPa -
Precipitation: 0.0 mm    
Historical Graphs
 
 
Tabular Data for September 3, 2016
Time Temperature Dew Point Pressure Wind Wind Speed Wind Gust Humidity Rainfall Rate (Hourly)
00:07 20.8 °C 10.3 °C 1018.8 hPa Calm     51 % 0.0 mm
00:12 20.7 °C 10.2 °C 1018.8 hPa Calm     51 % 0.0 mm
00:17 20.8 °C 10.3 °C 1018.8 hPa Calm     51 % 0.0 mm
00:22 20.9 °C 10.4 °C 1018.8 hPa Calm     51 % 0.0 mm
00:27 20.8 °C 10.3 °C 1018.8 hPa Calm     51 % 0.0 mm
00:32 20.9 °C 10.4 °C 1018.8 hPa Calm   3.2 km/h 51 % 0.0 mm
00:37 20.8 °C 10.3 °C 1018.8 hPa Calm   3.2 km/h 51 % 0.0 mm
00:42 20.9 °C 10.4 °C 1018.8 hPa Calm   3.2 km/h 51 % 0.0 mm
00:47 20.8 °C 10.6 °C 1018.8 hPa Calm   1.6 km/h 52 % 0.0 mm
00:52 20.4 °C 10.5 °C 1018.8 hPa Calm     53 % 0.0 mm
00:57 20.3 °C 10.4 °C 1018.8 hPa Calm     53 % 0.0 mm
01:02 20.4 °C 10.8 °C 1018.8 hPa Calm     54 % 0.0 mm
01:07 20.6 °C 11.0 °C 1018.8 hPa Calm     54 % 0.0 mm
01:12 20.7 °C 10.8 °C 1018.5 hPa Calm     53 % 0.0 mm
01:17 20.8 °C 10.6 °C 1018.5 hPa Calm     52 % 0.0 mm
01:22 20.9 °C 10.7 °C 1018.5 hPa Calm     52 % 0.0 mm
01:27 20.9 °C 10.7 °C 1018.5 hPa Calm     52 % 0.0 mm
01:32 20.7 °C 11.1 °C 1018.5 hPa Calm     54 % 0.0 mm
01:37 20.7 °C 11.1 °C 1018.5 hPa Calm     54 % 0.0 mm
01:42 20.3 °C 11.0 °C 1018.5 hPa Calm     55 % 0.0 mm
01:47 19.8 °C 10.5 °C 1018.5 hPa Calm     55 % 0.0 mm
01:52 19.6 °C 10.6 °C 1018.5 hPa Calm     56 % 0.0 mm
01:57 19.6 °C 10.8 °C 1018.5 hPa Calm     57 % 0.0 mm
02:02 19.6 °C 10.8 °C 1018.5 hPa Calm     57 % 0.0 mm
02:07 19.7 °C 10.9 °C 1018.5 hPa Calm     57 % 0.0 mm
02:12 19.6 °C 10.8 °C 1018.5 hPa Calm     57 % 0.0 mm
02:17 19.3 °C 10.6 °C 1018.5 hPa Calm     57 % 0.0 mm
02:22 18.9 °C 10.5 °C 1018.5 hPa Calm     58 % 0.0 mm
02:32 18.3 °C 10.1 °C 1018.5 hPa Calm   3.2 km/h 59 % 0.0 mm
02:37 18.1 °C 10.5 °C 1018.5 hPa Calm   3.2 km/h 61 % 0.0 mm
02:42 18.1 °C 10.5 °C 1018.5 hPa Calm   3.2 km/h 61 % 0.0 mm
02:47 18.1 °C 10.2 °C 1018.5 hPa Calm     60 % 0.0 mm
02:52 18.0 °C 10.4 °C 1018.5 hPa Calm     61 % 0.0 mm
02:57 17.9 °C 10.3 °C 1018.5 hPa Calm     61 % 0.0 mm
03:02 17.8 °C 10.2 °C 1018.5 hPa Calm     61 % 0.0 mm
03:07 17.8 °C 10.4 °C 1018.5 hPa Calm     62 % 0.0 mm
03:12 17.7 °C 10.3 °C 1018.5 hPa Calm     62 % 0.0 mm
03:17 17.7 °C 10.6 °C 1018.5 hPa Calm     63 % 0.0 mm
03:22 17.7 °C 10.6 °C 1018.5 hPa Calm     63 % 0.0 mm
03:27 17.6 °C 10.5 °C 1018.5 hPa Calm     63 % 0.0 mm
03:32 17.4 °C 10.5 °C 1018.5 hPa Calm     64 % 0.0 mm
03:37 17.4 °C 11.0 °C 1018.5 hPa Calm     66 % 0.0 mm
03:42 17.3 °C 10.7 °C 1018.5 hPa Calm     65 % 0.0 mm
03:47 17.4 °C 10.8 °C 1018.5 hPa Calm     65 % 0.0 mm
03:52 17.5 °C 10.8 °C 1018.5 hPa Calm     65 % 0.0 mm
03:57 17.5 °C 11.1 °C 1018.5 hPa Calm     66 % 0.0 mm
04:02 17.3 °C 10.9 °C 1018.5 hPa Calm     66 % 0.0 mm
04:07 17.1 °C 10.9 °C 1018.5 hPa Calm     67 % 0.0 mm
04:12 17.0 °C 10.6 °C 1018.5 hPa Calm     66 % 0.0 mm
04:17 16.9 °C 10.5 °C 1018.5 hPa Calm     66 % 0.0 mm
04:22 16.9 °C 11.0 °C 1018.5 hPa Calm     68 % 0.0 mm
04:27 16.9 °C 11.2 °C 1018.8 hPa Calm     69 % 0.0 mm
04:32 17.0 °C 11.3 °C 1018.8 hPa Calm     69 % 0.0 mm
04:37 16.9 °C 11.4 °C 1018.8 hPa Calm     70 % 0.0 mm
04:42 16.9 °C 11.2 °C 1018.8 hPa Calm     69 % 0.0 mm
04:47 16.8 °C 11.3 °C 1018.8 hPa Calm     70 % 0.0 mm
04:52 16.7 °C 11.2 °C 1018.8 hPa Calm     70 % 0.0 mm
04:57 16.7 °C 11.4 °C 1018.5 hPa Calm     71 % 0.0 mm
05:02 16.8 °C 11.5 °C 1018.5 hPa Calm     71 % 0.0 mm
05:07 17.0 °C 11.7 °C 1018.5 hPa Calm     71 % 0.0 mm
05:12 16.9 °C 11.2 °C 1018.5 hPa Calm     69 % 0.0 mm
05:17 16.7 °C 11.0 °C 1018.5 hPa Calm     69 % 0.0 mm
05:22 16.6 °C 11.1 °C 1018.5 hPa Calm     70 % 0.0 mm
05:27 16.4 °C 10.9 °C 1018.5 hPa Calm     70 % 0.0 mm
05:32 16.3 °C 10.8 °C 1018.5 hPa Calm     70 % 0.0 mm
05:37 16.2 °C 10.5 °C 1018.5 hPa Calm     69 % 0.0 mm
05:42 16.2 °C 10.5 °C 1018.8 hPa Calm     69 % 0.0 mm
05:47 16.1 °C 10.4 °C 1018.8 hPa Calm     69 % 0.0 mm
05:52 16.0 °C 10.5 °C 1018.8 hPa Calm     70 % 0.0 mm
05:57 16.0 °C 10.7 °C 1018.8 hPa Calm     71 % 0.0 mm
06:02 16.0 °C 10.5 °C 1018.8 hPa Calm     70 % 0.0 mm
06:07 15.9 °C 10.4 °C 1018.8 hPa Calm     70 % 0.0 mm
06:12 15.9 °C 10.4 °C 1018.8 hPa Calm     70 % 0.0 mm
06:17 15.7 °C 10.5 °C 1018.8 hPa Calm     71 % 0.0 mm
06:22 15.6 °C 10.6 °C 1018.8 hPa Calm     72 % 0.0 mm
06:27 15.4 °C 10.6 °C 1018.8 hPa Calm     73 % 0.0 mm
06:32 15.4 °C 10.6 °C 1018.8 hPa Calm     73 % 0.0 mm
06:37 15.4 °C 10.6 °C 1018.8 hPa Calm     73 % 0.0 mm
06:42 15.4 °C 10.6 °C 1018.8 hPa Calm     73 % 0.0 mm
06:47 15.4 °C 10.6 °C 1018.8 hPa Calm     73 % 0.0 mm
06:57 15.3 °C 10.5 °C 1018.8 hPa Calm     73 % 0.0 mm
07:02 15.1 °C 10.3 °C 1018.8 hPa Calm     73 % 0.0 mm
07:07 15.0 °C 10.6 °C 1018.8 hPa Calm     75 % 0.0 mm
07:12 14.9 °C 10.5 °C 1018.8 hPa NNE 3.2 km/h   75 % 0.0 mm
07:17 14.8 °C 11.0 °C 1018.8 hPa NE 3.2 km/h 8.0 km/h 78 % 0.0 mm
07:22 14.9 °C 10.9 °C 1018.8 hPa Calm   8.0 km/h 77 % 0.0 mm
07:27 14.9 °C 11.1 °C 1019.2 hPa Calm   6.4 km/h 78 % 0.0 mm
07:32 15.2 °C 11.4 °C 1019.2 hPa Calm   4.8 km/h 78 % 0.0 mm
07:37 15.4 °C 11.2 °C 1019.2 hPa Calm   3.2 km/h 76 % 0.0 mm
07:42 15.3 °C 11.1 °C 1019.2 hPa Calm   3.2 km/h 76 % 0.0 mm
07:47 15.2 °C 11.0 °C 1019.2 hPa Calm   1.6 km/h 76 % 0.0 mm
07:52 15.3 °C 11.5 °C 1019.5 hPa Calm     78 % 0.0 mm
07:57 15.7 °C 11.5 °C 1019.2 hPa Calm     76 % 0.0 mm
08:02 16.0 °C 11.8 °C 1019.2 hPa Calm     76 % 0.0 mm
08:07 16.4 °C 12.0 °C 1019.2 hPa Calm     75 % 0.0 mm
08:12 16.8 °C 11.3 °C 1019.2 hPa Calm     70 % 0.0 mm
08:17 17.1 °C 11.4 °C 1019.5 hPa Calm     69 % 0.0 mm
08:22 17.6 °C 11.6 °C 1019.5 hPa Calm     68 % 0.0 mm
08:27 17.7 °C 11.5 °C 1019.5 hPa Calm     67 % 0.0 mm
08:32 17.3 °C 11.3 °C 1019.5 hPa Calm     68 % 0.0 mm
08:37 17.3 °C 11.3 °C 1019.5 hPa Calm     68 % 0.0 mm
08:42 17.5 °C 11.3 °C 1019.5 hPa Calm     67 % 0.0 mm
08:47 17.6 °C 11.6 °C 1019.5 hPa Calm     68 % 0.0 mm
08:52 17.8 °C 11.8 °C 1019.5 hPa Calm     68 % 0.0 mm
09:02 18.2 °C 12.0 °C 1019.5 hPa Calm     67 % 0.0 mm
09:07 18.1 °C 11.9 °C 1019.9 hPa Calm     67 % 0.0 mm
09:12 18.3 °C 12.3 °C 1019.9 hPa Calm     68 % 0.0 mm
09:17 18.8 °C 12.5 °C 1019.5 hPa Calm     67 % 0.0 mm
09:22 19.1 °C 12.6 °C 1019.5 hPa Calm     66 % 0.0 mm
09:27 19.6 °C 12.8 °C 1019.5 hPa Calm     65 % 0.0 mm
09:32 20.0 °C 13.0 °C 1019.5 hPa Calm     64 % 0.0 mm
09:37 20.1 °C 13.1 °C 1019.5 hPa Calm     64 % 0.0 mm
09:42 20.4 °C 13.1 °C 1019.5 hPa Calm     63 % 0.0 mm
09:47 20.8 °C 13.5 °C 1019.5 hPa Calm     63 % 0.0 mm
09:52 21.2 °C 13.4 °C 1019.5 hPa Calm     61 % 0.0 mm
09:57 21.3 °C 13.5 °C 1019.9 hPa Calm     61 % 0.0 mm
10:07 21.7 °C 13.6 °C 1019.9 hPa Calm     60 % 0.0 mm
10:12 21.7 °C 13.6 °C 1019.9 hPa Calm     60 % 0.0 mm
10:17 21.9 °C 13.8 °C 1019.9 hPa Calm     60 % 0.0 mm
10:22 22.1 °C 14.0 °C 1019.9 hPa Calm     60 % 0.0 mm
10:27 22.7 °C 14.0 °C 1019.9 hPa Calm     58 % 0.0 mm
10:32 22.8 °C 13.8 °C 1019.9 hPa Calm     57 % 0.0 mm
10:37 23.1 °C 14.1 °C 1019.5 hPa SSE 1.6 km/h   57 % 0.0 mm
10:42 23.3 °C 14.0 °C 1019.5 hPa Calm   3.2 km/h 56 % 0.0 mm
10:47 23.6 °C 14.0 °C 1019.5 hPa Calm   3.2 km/h 55 % 0.0 mm
10:52 23.8 °C 13.9 °C 1019.9 hPa Calm   3.2 km/h 54 % 0.0 mm
10:57 23.9 °C 14.0 °C 1019.9 hPa Calm   3.2 km/h 54 % 0.0 mm
11:02 24.1 °C 14.2 °C 1019.5 hPa South 1.6 km/h 6.4 km/h 54 % 0.0 mm
11:07 24.2 °C 14.3 °C 1019.5 hPa Calm   6.4 km/h 54 % 0.0 mm
11:12 24.7 °C 14.2 °C 1019.5 hPa Calm   6.4 km/h 52 % 0.0 mm
11:17 24.7 °C 14.2 °C 1019.5 hPa Calm   6.4 km/h 52 % 0.0 mm
11:22 24.6 °C 14.1 °C 1019.5 hPa Calm   4.8 km/h 52 % 0.0 mm
11:32 24.9 °C 14.1 °C 1019.5 hPa ESE 4.8 km/h 6.4 km/h 51 % 0.0 mm
11:37 25.3 °C 14.1 °C 1019.2 hPa WNW 1.6 km/h 6.4 km/h 50 % 0.0 mm
11:42 25.4 °C 13.9 °C 1019.2 hPa SW 4.8 km/h 6.4 km/h 49 % 0.0 mm
11:47 25.4 °C 13.9 °C 1019.5 hPa SSE 4.8 km/h 9.7 km/h 49 % 0.0 mm
11:52 25.5 °C 14.0 °C 1019.2 hPa Calm   9.7 km/h 49 % 0.0 mm
11:57 25.8 °C 14.0 °C 1019.2 hPa ESE 1.6 km/h 6.4 km/h 48 % 0.0 mm
12:02 25.8 °C 14.0 °C 1019.2 hPa WSW 6.4 km/h 6.4 km/h 48 % 0.0 mm
12:07 26.1 °C 13.6 °C 1019.2 hPa SE 1.6 km/h 6.4 km/h 46 % 0.0 mm
12:12 26.3 °C 14.1 °C 1019.2 hPa SSE 11.3 km/h 11.3 km/h 47 % 0.0 mm
12:17 26.4 °C 13.5 °C 1018.8 hPa West 1.6 km/h 11.3 km/h 45 % 0.0 mm
12:22 26.6 °C 13.3 °C 1018.8 hPa SW 11.3 km/h 11.3 km/h 44 % 0.0 mm
12:27 26.8 °C 13.5 °C 1018.8 hPa SW 9.7 km/h 12.9 km/h 44 % 0.0 mm
12:37 27.0 °C 13.4 °C 1018.8 hPa SSE 4.8 km/h 12.9 km/h 43 % 0.0 mm
12:42 27.5 °C 13.1 °C 1018.8 hPa SSE 9.7 km/h 11.3 km/h 41 % 0.0 mm
12:52 27.4 °C 13.0 °C 1018.8 hPa WSW 4.8 km/h 14.5 km/h 41 % 0.0 mm
12:57 27.3 °C 12.5 °C 1018.8 hPa SW 4.8 km/h 17.7 km/h 40 % 0.0 mm
13:02 27.4 °C 12.6 °C 1018.8 hPa SW 11.3 km/h 17.7 km/h 40 % 0.0 mm
13:07 27.5 °C 12.7 °C 1018.8 hPa SSW 8.0 km/h 17.7 km/h 40 % 0.0 mm
13:12 27.7 °C 12.5 °C 1018.8 hPa West 3.2 km/h 14.5 km/h 39 % 0.0 mm
13:17 27.7 °C 12.9 °C 1018.8 hPa SW 4.8 km/h 14.5 km/h 40 % 0.0 mm
13:22 27.7 °C 12.1 °C 1018.8 hPa SSW 6.4 km/h 17.7 km/h 38 % 0.0 mm
13:27 27.8 °C 11.8 °C 1018.8 hPa WSW 4.8 km/h 17.7 km/h 37 % 0.0 mm
13:32 28.1 °C 12.4 °C 1018.5 hPa SW 9.7 km/h 17.7 km/h 38 % 0.0 mm
13:37 28.1 °C 12.0 °C 1018.8 hPa West 4.8 km/h 16.1 km/h 37 % 0.0 mm
13:42 27.9 °C 11.9 °C 1018.5 hPa WNW 4.8 km/h 16.1 km/h 37 % 0.0 mm
13:47 27.9 °C 12.3 °C 1018.5 hPa SW 4.8 km/h 16.1 km/h 38 % 0.0 mm
13:52 27.9 °C 12.3 °C 1018.5 hPa WSW 3.2 km/h 11.3 km/h 38 % 0.0 mm
13:57 28.0 °C 11.5 °C 1018.5 hPa WNW 6.4 km/h 12.9 km/h 36 % 0.0 mm
14:02 28.1 °C 11.6 °C 1018.5 hPa NE 3.2 km/h 12.9 km/h 36 % 0.0 mm
14:07 28.5 °C 12.0 °C 1018.5 hPa SW 6.4 km/h 12.9 km/h 36 % 0.0 mm
14:12 28.5 °C 12.0 °C 1018.5 hPa WNW 12.9 km/h 12.9 km/h 36 % 0.0 mm
14:17 28.2 °C 11.7 °C 1018.5 hPa WSW 9.7 km/h 16.1 km/h 36 % 0.0 mm
14:22 28.4 °C 11.9 °C 1018.5 hPa SSW 11.3 km/h 16.1 km/h 36 % 0.0 mm
14:27 28.3 °C 11.4 °C 1018.2 hPa WNW 1.6 km/h 17.7 km/h 35 % 0.0 mm
14:32 28.3 °C 11.4 °C 1018.2 hPa WSW 11.3 km/h 17.7 km/h 35 % 0.0 mm
14:37 28.3 °C 11.4 °C 1018.2 hPa SSE 3.2 km/h 17.7 km/h 35 % 0.0 mm
14:42 28.4 °C 11.5 °C 1018.2 hPa WSW 9.7 km/h 16.1 km/h 35 % 0.0 mm
14:47 28.1 °C 11.2 °C 1018.2 hPa South 8.0 km/h 14.5 km/h 35 % 0.0 mm
14:52 28.1 °C 11.6 °C 1018.2 hPa SW 12.9 km/h 14.5 km/h 36 % 0.0 mm
14:57 27.9 °C 11.0 °C 1017.8 hPa Calm   16.1 km/h 35 % 0.0 mm
15:02 28.3 °C 11.4 °C 1017.8 hPa WNW 4.8 km/h 16.1 km/h 35 % 0.0 mm
15:07 28.4 °C 11.0 °C 1017.8 hPa WSW 1.6 km/h 16.1 km/h 34 % 0.0 mm
15:12 28.3 °C 11.4 °C 1017.8 hPa WSW 8.0 km/h 14.5 km/h 35 % 0.0 mm
15:17 28.2 °C 11.3 °C 1017.8 hPa SW 11.3 km/h 12.9 km/h 35 % 0.0 mm
15:22 28.4 °C 11.5 °C 1017.8 hPa SW 4.8 km/h 14.5 km/h 35 % 0.0 mm
15:27 28.6 °C 10.8 °C 1017.8 hPa SW 6.4 km/h 14.5 km/h 33 % 0.0 mm
15:32 28.5 °C 10.7 °C 1017.5 hPa West 3.2 km/h 16.1 km/h 33 % 0.0 mm
15:37 28.8 °C 10.0 °C 1017.5 hPa SW 8.0 km/h 16.1 km/h 31 % 0.0 mm
15:42 28.8 °C 10.5 °C 1017.5 hPa South 12.9 km/h 19.3 km/h 32 % 0.0 mm
15:47 28.8 °C 9.0 °C 1017.5 hPa SSE 9.7 km/h 19.3 km/h 29 % 0.0 mm
15:52 28.7 °C 8.9 °C 1017.5 hPa West 6.4 km/h 19.3 km/h 29 % 0.0 mm
15:57 29.1 °C 8.2 °C 1017.5 hPa SW 8.0 km/h 19.3 km/h 27 % 0.0 mm
16:02 29.1 °C 9.3 °C 1017.5 hPa South 16.1 km/h 19.3 km/h 29 % 0.0 mm
16:07 29.1 °C 9.8 °C 1017.5 hPa WNW 9.7 km/h 16.1 km/h 30 % 0.0 mm
16:12 29.2 °C 8.3 °C 1017.2 hPa SSW 6.4 km/h 16.1 km/h 27 % 0.0 mm
16:22 29.2 °C 8.8 °C 1017.2 hPa WSW 3.2 km/h 17.7 km/h 28 % 0.0 mm
16:27 29.4 °C 9.0 °C 1017.2 hPa SSW 8.0 km/h 17.7 km/h 28 % 0.0 mm
16:32 29.1 °C 9.8 °C 1017.2 hPa SSW 11.3 km/h 16.1 km/h 30 % 0.0 mm
16:37 29.1 °C 9.8 °C 1017.2 hPa Calm   16.1 km/h 30 % 0.0 mm
16:42 29.2 °C 8.3 °C 1017.2 hPa West 9.7 km/h 16.1 km/h 27 % 0.0 mm
16:47 29.3 °C 7.8 °C 1017.2 hPa West 6.4 km/h 16.1 km/h 26 % 0.0 mm
16:52 29.1 °C 9.3 °C 1017.2 hPa West 4.8 km/h 16.1 km/h 29 % 0.0 mm
16:57 29.3 °C 8.9 °C 1017.2 hPa WNW 8.0 km/h 16.1 km/h 28 % 0.0 mm
17:02 29.3 °C 8.9 °C 1016.8 hPa SW 1.6 km/h 16.1 km/h 28 % 0.0 mm
17:07 29.4 °C 9.5 °C 1016.8 hPa SSW 4.8 km/h 12.9 km/h 29 % 0.0 mm
17:12 29.4 °C 9.0 °C 1016.8 hPa WSW 1.6 km/h 12.9 km/h 28 % 0.0 mm
17:17 29.4 °C 8.4 °C 1016.8 hPa WSW 8.0 km/h 14.5 km/h 27 % 0.0 mm
17:22 29.7 °C 9.8 °C 1016.8 hPa WNW 1.6 km/h 14.5 km/h 29 % 0.0 mm
17:27 29.9 °C 9.4 °C 1016.8 hPa WNW 1.6 km/h 14.5 km/h 28 % 0.0 mm
17:37 29.8 °C 9.9 °C 1016.8 hPa SW 6.4 km/h 16.1 km/h 29 % 0.0 mm
17:42 30.0 °C 10.0 °C 1016.8 hPa SW 9.7 km/h 16.1 km/h 29 % 0.0 mm
17:47 30.1 °C 10.1 °C 1016.8 hPa SSE 9.7 km/h 16.1 km/h 29 % 0.0 mm
17:57 30.2 °C 10.2 °C 1016.5 hPa WSW 8.0 km/h 16.1 km/h 29 % 0.0 mm
18:02 29.8 °C 9.9 °C 1016.5 hPa WSW 8.0 km/h 14.5 km/h 29 % 0.0 mm
18:07 29.7 °C 9.8 °C 1016.5 hPa Calm   12.9 km/h 29 % 0.0 mm
18:12 30.0 °C 10.0 °C 1016.5 hPa SW 9.7 km/h 12.9 km/h 29 % 0.0 mm
18:17 29.9 °C 9.9 °C 1016.5 hPa WSW 4.8 km/h 11.3 km/h 29 % 0.0 mm
18:22 29.8 °C 9.3 °C 1016.5 hPa SW 6.4 km/h 11.3 km/h 28 % 0.0 mm
18:27 29.8 °C 9.3 °C 1016.5 hPa SSW 4.8 km/h 12.9 km/h 28 % 0.0 mm
18:32 29.9 °C 9.4 °C 1016.5 hPa SW 6.4 km/h 12.9 km/h 28 % 0.0 mm
18:37 29.8 °C 9.3 °C 1016.5 hPa SW 4.8 km/h 12.9 km/h 28 % 0.0 mm
18:42 29.7 °C 8.7 °C 1016.5 hPa SW 3.2 km/h 11.3 km/h 27 % 0.0 mm
18:47 29.6 °C 8.6 °C 1016.5 hPa SSW 3.2 km/h 11.3 km/h 27 % 0.0 mm
18:52 29.6 °C 8.6 °C 1016.5 hPa SSW 8.0 km/h 12.9 km/h 27 % 0.0 mm
18:57 29.5 °C 8.5 °C 1016.5 hPa SW 6.4 km/h 12.9 km/h 27 % 0.0 mm
19:02 29.6 °C 8.6 °C 1016.5 hPa SW 6.4 km/h 11.3 km/h 27 % 0.0 mm
19:07 29.4 °C 8.4 °C 1016.5 hPa WSW 8.0 km/h 11.3 km/h 27 % 0.0 mm
19:12 29.4 °C 8.4 °C 1016.1 hPa SW 6.4 km/h 11.3 km/h 27 % 0.0 mm
19:17 29.4 °C 8.4 °C 1016.1 hPa SW 6.4 km/h 11.3 km/h 27 % 0.0 mm
19:22 29.4 °C 8.4 °C 1016.1 hPa SW 6.4 km/h 11.3 km/h 27 % 0.0 mm
19:27 29.3 °C 8.9 °C 1016.1 hPa SW 3.2 km/h 9.7 km/h 28 % 0.0 mm
19:32 29.3 °C 8.9 °C 1016.1 hPa SSW 3.2 km/h 9.7 km/h 28 % 0.0 mm
19:37 29.2 °C 8.3 °C 1016.1 hPa SW 6.4 km/h 6.4 km/h 27 % 0.0 mm
19:42 28.9 °C 8.6 °C 1016.1 hPa WSW 3.2 km/h 9.7 km/h 28 % 0.0 mm
19:47 28.7 °C 8.4 °C 1016.1 hPa WSW 3.2 km/h 9.7 km/h 28 % 0.0 mm
19:52 28.4 °C 8.7 °C 1016.1 hPa West 1.6 km/h 9.7 km/h 29 % 0.0 mm
19:57 28.2 °C 8.5 °C 1016.1 hPa West 1.6 km/h 6.4 km/h 29 % 0.0 mm
20:02 27.8 °C 8.6 °C 1016.5 hPa Calm   6.4 km/h 30 % 0.0 mm
20:07 27.5 °C 8.9 °C 1016.5 hPa Calm   4.8 km/h 31 % 0.0 mm
20:12 27.1 °C 9.0 °C 1016.5 hPa Calm   1.6 km/h 32 % 0.0 mm
20:17 26.5 °C 8.9 °C 1016.5 hPa Calm     33 % 0.0 mm
20:22 25.8 °C 9.2 °C 1016.5 hPa Calm   1.6 km/h 35 % 0.0 mm
20:27 25.2 °C 9.1 °C 1016.5 hPa Calm   1.6 km/h 36 % 0.0 mm
20:32 24.7 °C 9.4 °C 1016.5 hPa Calm   1.6 km/h 38 % 0.0 mm
20:37 24.4 °C 9.5 °C 1016.5 hPa Calm   1.6 km/h 39 % 0.0 mm
20:42 24.1 °C 9.7 °C 1016.5 hPa Calm   1.6 km/h 40 % 0.0 mm
20:47 23.7 °C 9.7 °C 1016.5 hPa Calm     41 % 0.0 mm
20:52 23.3 °C 9.3 °C 1016.5 hPa Calm     41 % 0.0 mm
20:57 23.1 °C 9.8 °C 1016.5 hPa Calm     43 % 0.0 mm
21:02 22.9 °C 10.0 °C 1016.5 hPa Calm     44 % 0.0 mm
21:07 22.8 °C 10.2 °C 1016.5 hPa WNW 1.6 km/h 1.6 km/h 45 % 0.0 mm
21:12 22.8 °C 9.9 °C 1016.5 hPa Calm   3.2 km/h 44 % 0.0 mm
21:17 23.1 °C 9.8 °C 1016.5 hPa Calm   3.2 km/h 43 % 0.0 mm
21:22 23.0 °C 9.7 °C 1016.5 hPa Calm   3.2 km/h 43 % 0.0 mm
21:27 22.8 °C 9.9 °C 1016.5 hPa Calm     44 % 0.0 mm
21:32 22.4 °C 10.2 °C 1016.5 hPa Calm     46 % 0.0 mm
21:37 22.1 °C 9.9 °C 1016.5 hPa Calm     46 % 0.0 mm
21:42 21.8 °C 10.0 °C 1016.5 hPa Calm     47 % 0.0 mm
21:47 21.6 °C 10.1 °C 1016.5 hPa Calm     48 % 0.0 mm
21:52 21.4 °C 10.2 °C 1016.5 hPa Calm     49 % 0.0 mm
21:57 21.2 °C 10.1 °C 1016.5 hPa Calm     49 % 0.0 mm
22:02 21.1 °C 10.3 °C 1016.8 hPa Calm     50 % 0.0 mm
22:07 20.8 °C 10.3 °C 1016.8 hPa Calm     51 % 0.0 mm
22:12 20.8 °C 10.6 °C 1016.8 hPa Calm     52 % 0.0 mm
22:17 21.1 °C 10.6 °C 1016.5 hPa Calm     51 % 0.0 mm
22:22 20.9 °C 10.4 °C 1016.5 hPa Calm     51 % 0.0 mm
22:27 20.7 °C 10.5 °C 1016.5 hPa Calm     52 % 0.0 mm
22:32 20.8 °C 10.9 °C 1016.5 hPa Calm     53 % 0.0 mm
22:37 20.9 °C 10.7 °C 1016.5 hPa Calm     52 % 0.0 mm
22:42 20.9 °C 11.0 °C 1016.5 hPa Calm     53 % 0.0 mm
22:47 21.0 °C 10.8 °C 1016.5 hPa Calm     52 % 0.0 mm
22:52 20.9 °C 10.7 °C 1016.5 hPa Calm     52 % 0.0 mm
22:57 20.6 °C 10.7 °C 1016.5 hPa Calm     53 % 0.0 mm
23:02 20.1 °C 10.5 °C 1016.5 hPa Calm     54 % 0.0 mm
23:07 20.1 °C 10.2 °C 1016.5 hPa Calm     53 % 0.0 mm
23:12 19.9 °C 10.3 °C 1016.5 hPa Calm     54 % 0.0 mm
23:17 19.7 °C 10.1 °C 1016.5 hPa Calm     54 % 0.0 mm
23:22 19.7 °C 10.1 °C 1016.5 hPa Calm     54 % 0.0 mm
23:32 19.8 °C 10.5 °C 1016.5 hPa Calm     55 % 0.0 mm
23:37 20.0 °C 10.4 °C 1016.5 hPa Calm     54 % 0.0 mm
23:42 20.2 °C 10.3 °C 1016.5 hPa Calm     53 % 0.0 mm
23:47 20.0 °C 10.1 °C 1016.5 hPa Calm     53 % 0.0 mm
23:52 19.7 °C 10.4 °C 1016.5 hPa Calm     55 % 0.0 mm
23:57 19.4 °C 10.4 °C 1016.5 hPa Calm     56 % 0.0 mm
Meteo18
Compliments of Weather Underground - 4 mb

Script developed by  Jim McMurry - jmcmurry@mwt.net Adapted for the template by  Wim van der Kuil - Leuven-Template.eu

You find our weather info also at:

European Weather Network

Weather Underground

Equipment we use:

Weather-station
Davis Vue

Weather-program
Meteohub

Weather-server
Raspberry PI 2 B+

Provider
1 and 1

Davis Vue

Meteohub

Raspberry PI 2 B+

1 and 1